Other Public Products
Issued by NWS Charleston, SC

Current Version | Previous Version | Text Only | Print | Product List | Glossary Off
Versions: 1 2 3 4 5 6 7 8 9 10 11 12 13 14 15 16 17 18 19 20 21 22 23 24 25 26 27 28 29 30 31 32 33 34 35 36 37 38 39 40 41 42 43 44 45 46 47 48 49 50
000 FPUS82 KCHS 261127 OPUCHS TEST...KCHS/KSAV Gateway Observations...TEST National Weather Service Charleston SC 700 AM EDT MON JUN 26 2017 NOTE: "fair" indicates few or no clouds below 12,000 feet with no significant weather and/or obstructions to visibility. SCZ050-WAZ558-NCZ071-TXZ119-213-PAZ071-DCZ001-FLZ074-172-MI076- NYZ176-178-MAZ016-IL014-TNZ027-NJZ106-GAZ044-MD014-261200- ...Gateway Observations for Charleston International... CITY SKY/WX TMP DP RH WIND PRES REMARKS Chas Airport MOCLDY 73 72 96 N3 30.05S Seattle MOCLDY 58 55 90 S9 29.95S Charlotte PTCLDY 63 58 83 N6 30.14S Dallas DFW CLOUDY 73 65 75 E6 30.12S Dallas Love MOCLDY 73 63 70 E7 30.14S Philladelphia MOSUNNY 68 49 50 NW6 30.05R Wash National MOSUNNY 69 51 52 N8 30.09R Baltimore MOSUNNY 63 55 75 W5 30.07R Miami MOCLDY 84 74 71 SE8 30.06S HX 91 Detroit PTCLDY 57 51 80 W8 30.04S Newark SUNNY 66 51 58 W6 30.03R Laguardia MOSUNNY 68 53 58 NW7 30.02R J F K MOSUNNY 70 52 52 NW7 30.04R Boston Logan MOSUNNY 65 53 65 W10 29.97R Ft. Lauderdale MOCLDY 82 75 79 SE10 30.05S Chicago O`Hare PTCLDY 56 49 77 W8 30.11R Chicago Midway PTCLDY 56 50 80 W8 30.12R Houston Bush MOCLDY 73 70 90 E5 30.09S Houston Hobby MOCLDY 76 72 87 NE8 30.08S Nashville CLOUDY 65 57 75 CALM 30.20R Atlanta PTCLDY 63 56 78 N7 30.16R $$ GAZ044-118-TXZ119-213-NCZ071-DCZ001-MDZ014-506-PAZ021-071-NJZ106- NYZ176-178-MAZ106-OHZ011-021-055-MIZ076-KYZ091-ILZ014-INZ047- MNZ060-ONZ431-261200- ...Gateway Observations for Savannah International... CITY SKY/WX TMP DP RH WIND PRES REMARKS Savannah Arpt CLOUDY 76 73 91 NW3 30.07R Atlanta PTCLDY 63 56 78 N7 30.16R Charlotte PTCLDY 63 58 83 N6 30.14S Dallas DFW CLOUDY 73 65 75 E6 30.12S Houston Bush MOCLDY 73 70 90 E5 30.09S Wash National MOSUNNY 69 51 52 N8 30.09R Wash Dulles PTSUNNY 64 51 62 W3 30.09R Baltimore MOSUNNY 63 55 75 W5 30.07R Philadelphia MOSUNNY 68 49 50 NW6 30.05R Newark SUNNY 66 51 58 W6 30.03R Laguardia MOSUNNY 68 53 58 NW7 30.02R J F K MOSUNNY 70 52 52 NW7 30.04R Boston MOSUNNY 65 53 65 W10 29.97R Pittsburg MOSUNNY 56 47 71 W3 30.08R Akron CLEAR 55 46 71 SW6 30.07R Cleveland PTCLDY 58 48 69 SW7 30.07R Cincinnati CLEAR 53 50 89 W5 30.15R Columbus PTCLDY 55 53 92 W5 30.11S Detroit PTCLDY 57 51 80 W8 30.04S Chicago O`Hare PTCLDY 56 49 77 W8 30.11R Minneapolis CLEAR 51 43 74 NW6 30.16S Indianapolis PTCLDY 54 49 83 W5 30.16R Toronto Canada PTSUNNY 59 54 82 NW5 29.97S $$

USA.gov is the U.S. government's official web portal to all federal, state and local government web resources and services.